owner,sensor,date,latitude,longitude,vertical_datum,direction_of_sea_water_velocity,sea_water_speed,upward_sea_water_velocity,qcFlag 
TABS,ioos:station:wmo:42050:1,2009-02-01T00:00:00Z,28.8425,-94.2433,2.0,159.1643523,6.719412177,-99999.0,'11133222,11111222,99999999' 
TABS,ioos:station:wmo:42050:1,2009-02-01T00:30:00Z,28.8425,-94.2433,2.0,170.3919216,6.470765024,-99999.0,'11133222,11111222,99999999' 
TABS,ioos:station:wmo:42050:1,2009-02-01T01:00:00Z,28.8425,-94.2433,2.0,185.4305881,8.55841691,-99999.0,'11133222,11111222,99999999' 
TABS,ioos:station:wmo:42050:1,2009-02-01T01:30:00Z,28.8425,-94.2433,2.0,181.6796912,10.57454491,-99999.0,'11111222,11111222,99999999' 
TABS,ioos:station:wmo:42050:1,2009-02-01T02:00:00Z,28.8425,-94.2433,2.0,200.1990916,11.09220447,-99999.0,'11111222,11111222,99999999' 
TABS,ioos:station:wmo:42050:1,2009-02-01T02:30:00Z,28.8425,-94.2433,2.0,202.8033499,12.9523743,-99999.0,'11111222,11111222,99999999' 
TABS,ioos:station:wmo:42050:1,2009-02-01T03:00:00Z,28.8425,-94.2433,2.0,216.0191644,10.64517261,-99999.0,'11111222,11111222,99999999' 
TABS,ioos:station:wmo:42050:1,2009-02-01T03:30:00Z,28.8425,-94.2433,2.0,224.8728307,9.581320368,-99999.0,'11133222,11111222,99999999' 
TABS,ioos:station:wmo:42050:1,2009-02-01T04:00:00Z,28.8425,-94.2433,2.0,242.2300353,7.233042237,-99999.0,'11133222,11111222,99999999' 
TABS,ioos:station:wmo:42050:1,2009-02-01T04:30:00Z,28.8425,-94.2433,2.0,264.8440068,6.677012805,-99999.0,'11133222,11111222,99999999' 
TABS,ioos:station:wmo:42050:1,2009-02-01T05:00:00Z,28.8425,-94.2433,2.0,287.804524,6.606398414,-99999.0,'11133222,11111222,99999999' 
TABS,ioos:station:wmo:42050:1,2009-02-01T05:30:00Z,28.8425,-94.2433,2.0,291.02699,7.552919965,-99999.0,'11133222,11111222,99999999' 
TABS,ioos:station:wmo:42050:1,2009-02-01T06:00:00Z,28.8425,-94.2433,2.0,315.0003157,8.018590899,-99999.0,'11133222,11111222,99999999' 
TABS,ioos:station:wmo:42050:1,2009-02-01T06:30:00Z,28.8425,-94.2433,2.0,332.366895,7.675519526,-99999.0,'11133222,11111222,99999999' 
TABS,ioos:station:wmo:42050:1,2009-02-01T07:00:00Z,28.8425,-94.2433,2.0,334.7270818,6.34757434,-99999.0,'11133222,11111222,99999999' 
TABS,ioos:station:wmo:42050:1,2009-02-01T07:30:00Z,28.8425,-94.2433,2.0,340.5831899,5.534799003,-99999.0,'11133222,11111222,99999999' 
TABS,ioos:station:wmo:42050:1,2009-02-01T08:00:00Z,28.8425,-94.2433,2.0,356.6527696,5.309058297,-99999.0,'11133222,11111222,99999999' 
TABS,ioos:station:wmo:42050:1,2009-02-01T08:30:00Z,28.8425,-94.2433,2.0,349.0514756,6.844589104,-99999.0,'11133222,11111222,99999999' 
TABS,ioos:station:wmo:42050:1,2009-02-01T09:00:00Z,28.8425,-94.2433,2.0,9.225630668,6.362295183,-99999.0,'11133222,11111222,99999999' 
TABS,ioos:station:wmo:42050:1,2009-02-01T09:30:00Z,28.8425,-94.2433,2.0,33.60589964,5.655174622,-99999.0,'11133222,11111222,99999999' 
TABS,ioos:station:wmo:42050:1,2009-02-01T10:00:00Z,28.8425,-94.2433,2.0,340.2013804,7.705491548,-99999.0,'11133222,11111222,99999999' 
TABS,ioos:station:wmo:42050:1,2009-02-01T10:30:00Z,28.8425,-94.2433,2.0,19.26317986,7.002013996,-99999.0,'11133222,11111222,99999999' 
TABS,ioos:station:wmo:42050:1,2009-02-01T11:00:00Z,28.8425,-94.2433,2.0,13.02504267,4.259589182,-99999.0,'11133222,11111222,99999999' 
TABS,ioos:station:wmo:42050:1,2009-02-01T16:30:00Z,28.8425,-94.2433,2.0,49.79212807,2.370021097,-99999.0,'11133222,11111222,99999999' 
TABS,ioos:station:wmo:42050:1,2009-02-01T17:00:00Z,28.8425,-94.2433,2.0,341.2321943,1.0878419,-99999.0,'11133222,11111222,99999999' 
TABS,ioos:station:wmo:42050:1,2009-02-01T17:30:00Z,28.8425,-94.2433,2.0,300.7000717,1.488623525,-99999.0,'11133222,11111222,99999999' 
TABS,ioos:station:wmo:42050:1,2009-02-01T18:00:00Z,28.8425,-94.2433,2.0,33.9437181,1.880452073,-99999.0,'11133222,11111222,99999999' 
TABS,ioos:station:wmo:42050:1,2009-02-01T18:30:00Z,28.8425,-94.2433,2.0,6.044288487,0.854751426,-99999.0,'11133222,11111222,99999999' 
TABS,ioos:station:wmo:42050:1,2009-02-01T19:00:00Z,28.8425,-94.2433,2.0,76.97695078,1.508807476,-99999.0,'11133222,11111222,99999999' 
TABS,ioos:station:wmo:42050:1,2009-02-01T19:30:00Z,28.8425,-94.2433,2.0,24.38652453,2.470404825,-99999.0,'11133222,11111222,99999999' 
TABS,ioos:station:wmo:42050:1,2009-02-01T20:00:00Z,28.8425,-94.2433,2.0,343.0611644,2.059344556,-99999.0,'11133222,11111222,99999999' 
TABS,ioos:station:wmo:42050:1,2009-02-01T20:30:00Z,28.8425,-94.2433,2.0,302.1121607,3.42379906,-99999.0,'11133222,11111222,99999999' 
TABS,ioos:station:wmo:42050:1,2009-02-01T21:00:00Z,28.8425,-94.2433,2.0,317.3084876,3.687017765,-99999.0,'11133222,11111222,99999999' 
TABS,ioos:station:wmo:42050:1,2009-02-01T21:30:00Z,28.8425,-94.2433,2.0,321.9006277,2.236515146,-99999.0,'11133222,11111222,99999999' 
TABS,ioos:station:wmo:42050:1,2009-02-01T22:00:00Z,28.8425,-94.2433,2.0,317.1923803,2.957870856,-99999.0,'11133222,11111222,99999999' 
TABS,ioos:station:wmo:42050:1,2009-02-01T22:30:00Z,28.8425,-94.2433,2.0,7.008884706,6.72021577,-99999.0,'11133222,11111222,99999999' 
TABS,ioos:station:wmo:42050:1,2009-02-01T23:00:00Z,28.8425,-94.2433,2.0,28.45042571,5.709535883,-99999.0,'11133222,11111222,99999999' 
TABS,ioos:station:wmo:42050:1,2009-02-01T23:30:00Z,28.8425,-94.2433,2.0,10.00272826,6.10276167,-99999.0,'11133222,11111222,99999999' 
TABS,ioos:station:wmo:42050:1,2009-02-02T00:00:00Z,28.8425,-94.2433,2.0,5.254000924,2.621011255,-99999.0,'11133222,11111222,99999999' 
TABS,ioos:station:wmo:42050:1,2009-02-02T00:30:00Z,28.8425,-94.2433,2.0,340.4213041,2.05905318,-99999.0,'11133222,11111222,99999999' 
TABS,ioos:station:wmo:42050:1,2009-02-02T01:00:00Z,28.8425,-94.2433,2.0,323.8474108,3.356262803,-99999.0,'11133222,11111222,99999999' 
TABS,ioos:station:wmo:42050:1,2009-02-02T01:30:00Z,28.8425,-94.2433,2.0,74.74491697,0.342052628,-99999.0,'11133222,11111222,99999999' 
TABS,ioos:station:wmo:42050:1,2009-02-02T02:00:00Z,28.8425,-94.2433,2.0,137.4894419,1.62788206,-99999.0,'11133222,11111222,99999999' 
TABS,ioos:station:wmo:42050:1,2009-02-02T02:30:00Z,28.8425,-94.2433,2.0,188.3541208,2.890674662,-99999.0,'11133222,11111222,99999999' 
TABS,ioos:station:wmo:42050:1,2009-02-02T03:00:00Z,28.8425,-94.2433,2.0,182.6372638,5.215524902,-99999.0,'11133222,11111222,99999999' 
TABS,ioos:station:wmo:42050:1,2009-02-02T03:30:00Z,28.8425,-94.2433,2.0,191.7613411,3.483130776,-99999.0,'11133222,11111222,99999999' 
TABS,ioos:station:wmo:42050:1,2009-02-02T04:00:00Z,28.8425,-94.2433,2.0,184.1382734,5.404091043,-99999.0,'11133222,11111222,99999999' 
TABS,ioos:station:wmo:42050:1,2009-02-02T04:30:00Z,28.8425,-94.2433,2.0,205.5485544,6.051751812,-99999.0,'11133222,11111222,99999999' 
TABS,ioos:station:wmo:42050:1,2009-02-02T05:00:00Z,28.8425,-94.2433,2.0,214.8982465,5.52326896,-99999.0,'11133222,11111222,99999999' 
TABS,ioos:station:wmo:42050:1,2009-02-02T05:30:00Z,28.8425,-94.2433,2.0,212.0677092,9.700046392,-99999.0,'11133222,11111222,99999999' 
TABS,ioos:station:wmo:42050:1,2009-02-02T06:00:00Z,28.8425,-94.2433,2.0,213.594206,6.650864605,-99999.0,'11133222,11111222,99999999' 
TABS,ioos:station:wmo:42050:1,2009-02-02T06:30:00Z,28.8425,-94.2433,2.0,229.7198102,7.73369252,-99999.0,'11133222,11111222,99999999' 
TABS,ioos:station:wmo:42050:1,2009-02-02T07:00:00Z,28.8425,-94.2433,2.0,226.5545589,6.514852262,-99999.0,'11133222,11111222,99999999' 
TABS,ioos:station:wmo:42050:1,2009-02-02T07:30:00Z,28.8425,-94.2433,2.0,224.4881296,6.335929293,-99999.0,'11133222,11111222,99999999' 
TABS,ioos:station:wmo:42050:1,2009-02-02T08:00:00Z,28.8425,-94.2433,2.0,254.1882451,4.697744139,-99999.0,'11133222,11111222,99999999' 
TABS,ioos:station:wmo:42050:1,2009-02-02T08:30:00Z,28.8425,-94.2433,2.0,254.5240822,8.207569677,-99999.0,'11133222,11111222,99999999' 
TABS,ioos:station:wmo:42050:1,2009-02-02T09:00:00Z,28.8425,-94.2433,2.0,263.5822537,4.920833263,-99999.0,'11133222,11111222,99999999' 
TABS,ioos:station:wmo:42050:1,2009-02-02T09:30:00Z,28.8425,-94.2433,2.0,264.8401485,4.448022032,-99999.0,'11133222,11111222,99999999' 
TABS,ioos:station:wmo:42050:1,2009-02-02T10:00:00Z,28.8425,-94.2433,2.0,264.9263312,5.993479791,-99999.0,'11133222,11111222,99999999' 
TABS,ioos:station:wmo:42050:1,2009-02-02T10:30:00Z,28.8425,-94.2433,2.0,297.2355039,4.588725313,-99999.0,'11133222,11111222,99999999' 
TABS,ioos:station:wmo:42050:1,2009-02-02T11:00:00Z,28.8425,-94.2433,2.0,308.7405161,6.679558369,-99999.0,'11133222,11111222,99999999' 
TABS,ioos:station:wmo:42050:1,2009-02-02T11:30:00Z,28.8425,-94.2433,2.0,295.1461585,10.47248299,-99999.0,'11111222,11111222,99999999' 
TABS,ioos:station:wmo:42050:1,2009-02-02T12:00:00Z,28.8425,-94.2433,2.0,274.3953323,11.61415085,-99999.0,'11111222,11111222,99999999' 
TABS,ioos:station:wmo:42050:1,2009-02-02T12:30:00Z,28.8425,-94.2433,2.0,291.5615017,9.741663102,-99999.0,'11133222,11111222,99999999' 
TABS,ioos:station:wmo:42050:1,2009-02-02T13:00:00Z,28.8425,-94.2433,2.0,288.3327776,12.36768774,-99999.0,'11111222,11111222,99999999' 
TABS,ioos:station:wmo:42050:1,2009-02-02T13:30:00Z,28.8425,-94.2433,2.0,280.1937371,13.78762126,-99999.0,'11111222,11111222,99999999' 
TABS,ioos:station:wmo:42050:1,2009-02-02T14:00:00Z,28.8425,-94.2433,2.0,284.7044227,16.23158649,-99999.0,'11111222,11111222,99999999' 
TABS,ioos:station:wmo:42050:1,2009-02-02T14:30:00Z,28.8425,-94.2433,2.0,275.0174735,15.20826749,-99999.0,'11111222,11111222,99999999' 
TABS,ioos:station:wmo:42050:1,2009-02-02T15:00:00Z,28.8425,-94.2433,2.0,275.6569686,15.82706859,-99999.0,'11111222,11111222,99999999' 
TABS,ioos:station:wmo:42050:1,2009-02-02T15:30:00Z,28.8425,-94.2433,2.0,265.1418333,16.17811176,-99999.0,'11111222,11111222,99999999' 
TABS,ioos:station:wmo:42050:1,2009-02-02T16:00:00Z,28.8425,-94.2433,2.0,251.2796228,15.8906419,-99999.0,'11111222,11111222,99999999' 
TABS,ioos:station:wmo:42050:1,2009-02-02T16:30:00Z,28.8425,-94.2433,2.0,248.0917515,20.9854664,-99999.0,'11111222,11111222,99999999' 
TABS,ioos:station:wmo:42050:1,2009-02-02T17:00:00Z,28.8425,-94.2433,2.0,247.9423503,21.62258079,-99999.0,'11111222,11111222,99999999' 
TABS,ioos:station:wmo:42050:1,2009-02-02T17:30:00Z,28.8425,-94.2433,2.0,248.180902,18.43026316,-99999.0,'11111222,11111222,99999999' 
TABS,ioos:station:wmo:42050:1,2009-02-02T18:00:00Z,28.8425,-94.2433,2.0,240.128054,16.82535289,-99999.0,'11111222,11111222,99999999' 
TABS,ioos:station:wmo:42050:1,2009-02-02T18:30:00Z,28.8425,-94.2433,2.0,244.9312518,18.14964738,-99999.0,'11111222,11111222,99999999' 
TABS,ioos:station:wmo:42050:1,2009-02-02T19:00:00Z,28.8425,-94.2433,2.0,243.9426554,19.66922723,-99999.0,'11111222,11111222,99999999' 
TABS,ioos:station:wmo:42050:1,2009-02-02T19:30:00Z,28.8425,-94.2433,2.0,243.4811592,16.50665926,-99999.0,'11111222,11111222,99999999' 
TABS,ioos:station:wmo:42050:1,2009-02-02T20:00:00Z,28.8425,-94.2433,2.0,250.2773474,17.45385344,-99999.0,'11111222,11111222,99999999' 
TABS,ioos:station:wmo:42050:1,2009-02-02T20:30:00Z,28.8425,-94.2433,2.0,257.1820692,17.21907373,-99999.0,'11111222,11111222,99999999' 
TABS,ioos:station:wmo:42050:1,2009-02-02T21:00:00Z,28.8425,-94.2433,2.0,254.113429,17.27996817,-99999.0,'11111222,11111222,99999999' 
TABS,ioos:station:wmo:42050:1,2009-02-02T21:30:00Z,28.8425,-94.2433,2.0,254.8231317,23.64462941,-99999.0,'11111222,11111222,99999999' 
TABS,ioos:station:wmo:42050:1,2009-02-02T22:00:00Z,28.8425,-94.2433,2.0,265.5108655,19.03839542,-99999.0,'11111222,11111222,99999999' 
TABS,ioos:station:wmo:42050:1,2009-02-02T22:30:00Z,28.8425,-94.2433,2.0,268.1766538,15.7179547,-99999.0,'11111222,11111222,99999999' 
TABS,ioos:station:wmo:42050:1,2009-02-02T23:00:00Z,28.8425,-94.2433,2.0,259.829079,14.49781018,-99999.0,'11111222,11111222,99999999' 
TABS,ioos:station:wmo:42050:1,2009-02-02T23:30:00Z,28.8425,-94.2433,2.0,270.0004209,11.88,-99999.0,'11111222,11111222,99999999' 
TABS,ioos:station:wmo:42050:1,2009-02-03T00:00:00Z,28.8425,-94.2433,2.0,260.5449388,12.29704436,-99999.0,'11111222,11111222,99999999' 
TABS,ioos:station:wmo:42050:1,2009-02-03T00:30:00Z,28.8425,-94.2433,2.0,267.2212348,6.808002644,-99999.0,'11133222,11111222,99999999' 
TABS,ioos:station:wmo:42050:1,2009-02-03T01:00:00Z,28.8425,-94.2433,2.0,261.8694957,6.222539674,-99999.0,'11133222,11111222,99999999' 
TABS,ioos:station:wmo:42050:1,2009-02-03T01:30:00Z,28.8425,-94.2433,2.0,230.9242524,10.54981516,-99999.0,'11111222,11111222,99999999' 
TABS,ioos:station:wmo:42050:1,2009-02-03T02:00:00Z,28.8425,-94.2433,2.0,241.2343239,12.69681062,-99999.0,'11111222,11111222,99999999' 
TABS,ioos:station:wmo:42050:1,2009-02-03T02:30:00Z,28.8425,-94.2433,2.0,240.0755414,16.2573122,-99999.0,'11111222,11111222,99999999' 
TABS,ioos:station:wmo:42050:1,2009-02-03T03:00:00Z,28.8425,-94.2433,2.0,235.9771034,14.81629171,-99999.0,'11111222,11111222,99999999' 
TABS,ioos:station:wmo:42050:1,2009-02-03T03:30:00Z,28.8425,-94.2433,2.0,230.4614529,17.01244544,-99999.0,'11111222,11111222,99999999' 
TABS,ioos:station:wmo:42050:1,2009-02-03T04:00:00Z,28.8425,-94.2433,2.0,242.0225903,13.06707695,-99999.0,'11111222,11111222,99999999' 
TABS,ioos:station:wmo:42050:1,2009-02-03T04:30:00Z,28.8425,-94.2433,2.0,227.3841845,11.72691349,-99999.0,'11111222,11111222,99999999' 
TABS,ioos:station:wmo:42050:1,2009-02-03T05:00:00Z,28.8425,-94.2433,2.0,238.2589849,9.865505562,-99999.0,'11133222,11111222,99999999' 
TABS,ioos:station:wmo:42050:1,2009-02-03T05:30:00Z,28.8425,-94.2433,2.0,234.734849,10.49611833,-99999.0,'11111222,11111222,99999999' 
TABS,ioos:station:wmo:42050:1,2009-02-03T06:00:00Z,28.8425,-94.2433,2.0,249.7935171,12.07301951,-99999.0,'11111222,11111222,99999999' 
TABS,ioos:station:wmo:42050:1,2009-02-03T06:30:00Z,28.8425,-94.2433,2.0,260.2247938,10.24878529,-99999.0,'11111222,11111222,99999999' 
TABS,ioos:station:wmo:42050:1,2009-02-03T07:00:00Z,28.8425,-94.2433,2.0,258.2899002,12.36738453,-99999.0,'11111222,11111222,99999999' 
TABS,ioos:station:wmo:42050:1,2009-02-03T07:30:00Z,28.8425,-94.2433,2.0,256.0182283,12.66521615,-99999.0,'11111222,11111222,99999999' 
TABS,ioos:station:wmo:42050:1,2009-02-03T08:00:00Z,28.8425,-94.2433,2.0,262.880119,12.82891266,-99999.0,'11111222,11111222,99999999' 
TABS,ioos:station:wmo:42050:1,2009-02-03T08:30:00Z,28.8425,-94.2433,2.0,281.5361659,9.951009999,-99999.0,'11133222,11111222,99999999' 
TABS,ioos:station:wmo:42050:1,2009-02-03T09:00:00Z,28.8425,-94.2433,2.0,275.5488742,10.54942652,-99999.0,'11111222,11111222,99999999' 
TABS,ioos:station:wmo:42050:1,2009-02-03T09:30:00Z,28.8425,-94.2433,2.0,288.2033617,7.810889834,-99999.0,'11133222,11111222,99999999' 
TABS,ioos:station:wmo:42050:1,2009-02-03T10:00:00Z,28.8425,-94.2433,2.0,291.2850641,12.14868306,-99999.0,'11111222,11111222,99999999' 
TABS,ioos:station:wmo:42050:1,2009-02-03T10:30:00Z,28.8425,-94.2433,2.0,299.8842995,13.28663991,-99999.0,'11111222,11111222,99999999' 
TABS,ioos:station:wmo:42050:1,2009-02-03T11:00:00Z,28.8425,-94.2433,2.0,298.3933739,9.673680789,-99999.0,'11133222,11111222,99999999' 
TABS,ioos:station:wmo:42050:1,2009-02-03T11:30:00Z,28.8425,-94.2433,2.0,303.7546244,9.898631219,-99999.0,'11133222,11111222,99999999' 
TABS,ioos:station:wmo:42050:1,2009-02-03T12:00:00Z,28.8425,-94.2433,2.0,314.240471,10.66410803,-99999.0,'11111222,11111222,99999999' 
TABS,ioos:station:wmo:42050:1,2009-02-03T12:30:00Z,28.8425,-94.2433,2.0,327.3159927,12.16644977,-99999.0,'11111222,11111222,99999999' 
TABS,ioos:station:wmo:42050:1,2009-02-03T13:00:00Z,28.8425,-94.2433,2.0,314.9177572,9.814652312,-99999.0,'11133222,11111222,99999999' 
TABS,ioos:station:wmo:42050:1,2009-02-03T13:30:00Z,28.8425,-94.2433,2.0,332.4084194,8.48500442,-99999.0,'11133222,11111222,99999999' 
TABS,ioos:station:wmo:42050:1,2009-02-03T14:00:00Z,28.8425,-94.2433,2.0,332.2605542,8.507790547,-99999.0,'11133222,11111222,99999999' 
TABS,ioos:station:wmo:42050:1,2009-02-03T14:30:00Z,28.8425,-94.2433,2.0,318.5846216,6.333924534,-99999.0,'11133222,11111222,99999999' 
TABS,ioos:station:wmo:42050:1,2009-02-03T15:00:00Z,28.8425,-94.2433,2.0,318.8610393,8.086439266,-99999.0,'11133222,11111222,99999999' 
TABS,ioos:station:wmo:42050:1,2009-02-03T15:30:00Z,28.8425,-94.2433,2.0,309.2897359,9.238235762,-99999.0,'11133222,11111222,99999999' 
TABS,ioos:station:wmo:42050:1,2009-02-03T16:00:00Z,28.8425,-94.2433,2.0,316.0226134,9.908143116,-99999.0,'11133222,11111222,99999999' 
TABS,ioos:station:wmo:42050:1,2009-02-03T16:30:00Z,28.8425,-94.2433,2.0,306.9751907,9.826016487,-99999.0,'11133222,11111222,99999999' 
TABS,ioos:station:wmo:42050:1,2009-02-03T17:00:00Z,28.8425,-94.2433,2.0,293.1989572,8.60582361,-99999.0,'11133222,11111222,99999999' 
TABS,ioos:station:wmo:42050:1,2009-02-03T17:30:00Z,28.8425,-94.2433,2.0,288.3035117,8.247241963,-99999.0,'11133222,11111222,99999999' 
TABS,ioos:station:wmo:42050:1,2009-02-03T18:00:00Z,28.8425,-94.2433,2.0,295.9209762,8.350005988,-99999.0,'11133222,11111222,99999999' 
TABS,ioos:station:wmo:42050:1,2009-02-03T18:30:00Z,28.8425,-94.2433,2.0,303.4308348,6.734129491,-99999.0,'11133222,11111222,99999999' 
TABS,ioos:station:wmo:42050:1,2009-02-03T19:00:00Z,28.8425,-94.2433,2.0,309.6475268,4.168896737,-99999.0,'11133222,11111222,99999999' 
TABS,ioos:station:wmo:42050:1,2009-02-03T19:30:00Z,28.8425,-94.2433,2.0,328.6658573,3.711307047,-99999.0,'11133222,11111222,99999999' 
TABS,ioos:station:wmo:42050:1,2009-02-03T20:00:00Z,28.8425,-94.2433,2.0,319.0169039,2.927541631,-99999.0,'11133222,11111222,99999999' 
TABS,ioos:station:wmo:42050:1,2009-02-03T20:30:00Z,28.8425,-94.2433,2.0,310.8975284,3.360297606,-99999.0,'11133222,11111222,99999999' 
TABS,ioos:station:wmo:42050:1,2009-02-03T21:00:00Z,28.8425,-94.2433,2.0,296.8742784,3.318373095,-99999.0,'11133222,11111222,99999999' 
TABS,ioos:station:wmo:42050:1,2009-02-03T21:30:00Z,28.8425,-94.2433,2.0,312.7977227,1.839836949,-99999.0,'11133222,11111222,99999999' 
TABS,ioos:station:wmo:42050:1,2009-02-03T22:00:00Z,28.8425,-94.2433,2.0,316.5420623,3.4165626,-99999.0,'11133222,11111222,99999999' 
TABS,ioos:station:wmo:42050:1,2009-02-03T22:30:00Z,28.8425,-94.2433,2.0,2.407017078,5.715041557,-99999.0,'11133222,11111222,99999999' 
TABS,ioos:station:wmo:42050:1,2009-02-03T23:00:00Z,28.8425,-94.2433,2.0,22.76212452,3.101548001,-99999.0,'11133222,11111222,99999999' 
TABS,ioos:station:wmo:42050:1,2009-02-03T23:30:00Z,28.8425,-94.2433,2.0,12.55970216,4.046838272,-99999.0,'11133222,11111222,99999999' 
TABS,ioos:station:wmo:42050:1,2009-02-04T00:00:00Z,28.8425,-94.2433,2.0,17.27275532,5.456051686,-99999.0,'11133222,11111222,99999999' 
TABS,ioos:station:wmo:42050:1,2009-02-04T00:30:00Z,28.8425,-94.2433,2.0,7.99371326,2.3730571,-99999.0,'11133222,11111222,99999999' 
TABS,ioos:station:wmo:42050:1,2009-02-04T01:00:00Z,28.8425,-94.2433,2.0,17.48555154,2.862254356,-99999.0,'11133222,11111222,99999999' 
TABS,ioos:station:wmo:42050:1,2009-02-04T01:30:00Z,28.8425,-94.2433,2.0,73.30079482,1.670449041,-99999.0,'11133222,11111222,99999999' 
TABS,ioos:station:wmo:42050:1,2009-02-04T02:00:00Z,28.8425,-94.2433,2.0,102.4790426,1.249519908,-99999.0,'11133222,11111222,99999999' 
TABS,ioos:station:wmo:42050:1,2009-02-04T02:30:00Z,28.8425,-94.2433,2.0,242.8444872,4.776494531,-99999.0,'11133222,11111222,99999999' 
TABS,ioos:station:wmo:42050:1,2009-02-04T03:00:00Z,28.8425,-94.2433,2.0,220.7023077,2.453487314,-99999.0,'11133222,11111222,99999999' 
TABS,ioos:station:wmo:42050:1,2009-02-04T03:30:00Z,28.8425,-94.2433,2.0,199.474865,4.529127951,-99999.0,'11133222,11111222,99999999' 
TABS,ioos:station:wmo:42050:1,2009-02-04T04:00:00Z,28.8425,-94.2433,2.0,255.1869247,5.906284788,-99999.0,'11133222,11111222,99999999' 
TABS,ioos:station:wmo:42050:1,2009-02-04T04:30:00Z,28.8425,-94.2433,2.0,219.0455908,6.953013735,-99999.0,'11133222,11111222,99999999' 
TABS,ioos:station:wmo:42050:1,2009-02-04T05:00:00Z,28.8425,-94.2433,2.0,215.9912016,7.04482789,-99999.0,'11133222,11111222,99999999' 
TABS,ioos:station:wmo:42050:1,2009-02-04T05:30:00Z,28.8425,-94.2433,2.0,204.919664,8.567671796,-99999.0,'11133222,11111222,99999999' 
TABS,ioos:station:wmo:42050:1,2009-02-04T06:00:00Z,28.8425,-94.2433,2.0,211.8428567,7.486795042,-99999.0,'11133222,11111222,99999999' 
TABS,ioos:station:wmo:42050:1,2009-02-04T06:30:00Z,28.8425,-94.2433,2.0,212.4107056,11.6793493,-99999.0,'11111222,11111222,99999999' 
TABS,ioos:station:wmo:42050:1,2009-02-04T07:00:00Z,28.8425,-94.2433,2.0,218.2541204,11.91947985,-99999.0,'11111222,11111222,99999999' 
TABS,ioos:station:wmo:42050:1,2009-02-04T07:30:00Z,28.8425,-94.2433,2.0,210.7624371,21.99482894,-99999.0,'11111222,11111222,99999999' 
TABS,ioos:station:wmo:42050:1,2009-02-04T08:00:00Z,28.8425,-94.2433,2.0,218.4638462,21.49432018,-99999.0,'11111222,11111222,99999999' 
TABS,ioos:station:wmo:42050:1,2009-02-04T08:30:00Z,28.8425,-94.2433,2.0,220.4043376,19.59327436,-99999.0,'11111222,11111222,99999999' 
TABS,ioos:station:wmo:42050:1,2009-02-04T09:00:00Z,28.8425,-94.2433,2.0,222.8336492,20.01835408,-99999.0,'11111222,11111222,99999999' 
TABS,ioos:station:wmo:42050:1,2009-02-04T09:30:00Z,28.8425,-94.2433,2.0,232.5001705,18.20109887,-99999.0,'11111222,11111222,99999999' 
TABS,ioos:station:wmo:42050:1,2009-02-04T10:00:00Z,28.8425,-94.2433,2.0,231.6321834,14.99912331,-99999.0,'11111222,11111222,99999999' 
TABS,ioos:station:wmo:42050:1,2009-02-04T10:30:00Z,28.8425,-94.2433,2.0,242.8976756,14.79447532,-99999.0,'11111222,11111222,99999999' 
TABS,ioos:station:wmo:42050:1,2009-02-04T11:00:00Z,28.8425,-94.2433,2.0,247.9556106,16.22620412,-99999.0,'11111222,11111222,99999999' 
TABS,ioos:station:wmo:42050:1,2009-02-04T11:30:00Z,28.8425,-94.2433,2.0,270.4859656,11.80042372,-99999.0,'11111222,11111222,99999999' 
TABS,ioos:station:wmo:42050:1,2009-02-04T12:00:00Z,28.8425,-94.2433,2.0,288.3566239,13.81284185,-99999.0,'11111222,11111222,99999999' 
TABS,ioos:station:wmo:42050:1,2009-02-04T12:30:00Z,28.8425,-94.2433,2.0,290.5233056,12.15121393,-99999.0,'11111222,11111222,99999999' 
TABS,ioos:station:wmo:42050:1,2009-02-04T13:00:00Z,28.8425,-94.2433,2.0,291.684328,15.39974675,-99999.0,'11111222,11111222,99999999' 
TABS,ioos:station:wmo:42050:1,2009-02-04T13:30:00Z,28.8425,-94.2433,2.0,280.448214,10.03639876,-99999.0,'11111222,11111222,99999999' 
TABS,ioos:station:wmo:42050:1,2009-02-04T14:00:00Z,28.8425,-94.2433,2.0,278.8323089,12.70059054,-99999.0,'11111222,11111222,99999999' 
TABS,ioos:station:wmo:42050:1,2009-02-04T14:30:00Z,28.8425,-94.2433,2.0,295.9827044,14.9511237,-99999.0,'11111222,11111222,99999999' 
TABS,ioos:station:wmo:42050:1,2009-02-04T15:00:00Z,28.8425,-94.2433,2.0,293.226176,13.82000362,-99999.0,'11111222,11111222,99999999' 
TABS,ioos:station:wmo:42050:1,2009-02-04T15:30:00Z,28.8425,-94.2433,2.0,297.5591788,14.69764947,-99999.0,'11111222,11111222,99999999' 
TABS,ioos:station:wmo:42050:1,2009-02-04T16:00:00Z,28.8425,-94.2433,2.0,301.5147474,10.8855179,-99999.0,'11111222,11111222,99999999' 
TABS,ioos:station:wmo:42050:1,2009-02-04T16:30:00Z,28.8425,-94.2433,2.0,285.316392,12.37968093,-99999.0,'11111222,11111222,99999999' 
TABS,ioos:station:wmo:42050:1,2009-02-04T17:00:00Z,28.8425,-94.2433,2.0,272.4824047,13.16234781,-99999.0,'11111222,11111222,99999999' 
TABS,ioos:station:wmo:42050:1,2009-02-04T17:30:00Z,28.8425,-94.2433,2.0,276.2995198,15.40299322,-99999.0,'11111222,11111222,99999999' 
TABS,ioos:station:wmo:42050:1,2009-02-04T18:00:00Z,28.8425,-94.2433,2.0,263.0208498,15.0615869,-99999.0,'11111222,11111222,99999999' 
TABS,ioos:station:wmo:42050:1,2009-02-04T18:30:00Z,28.8425,-94.2433,2.0,253.452857,15.83579805,-99999.0,'11111222,11111222,99999999' 
TABS,ioos:station:wmo:42050:1,2009-02-04T19:00:00Z,28.8425,-94.2433,2.0,260.1523675,19.8220332,-99999.0,'11111222,11111222,99999999' 
TABS,ioos:station:wmo:42050:1,2009-02-04T19:30:00Z,28.8425,-94.2433,2.0,248.0496018,17.8973769,-99999.0,'11111222,11111222,99999999' 
TABS,ioos:station:wmo:42050:1,2009-02-04T20:00:00Z,28.8425,-94.2433,2.0,248.7200244,20.39019372,-99999.0,'11111222,11111222,99999999' 
TABS,ioos:station:wmo:42050:1,2009-02-04T20:30:00Z,28.8425,-94.2433,2.0,248.2303881,19.84526392,-99999.0,'11111222,11111222,99999999' 
TABS,ioos:station:wmo:42050:1,2009-02-04T21:00:00Z,28.8425,-94.2433,2.0,251.8505498,19.64747566,-99999.0,'11111222,11111222,99999999' 